Location: Stara Lesna
(49.1528°N, 20.2911°E)
Time: 09:59:58
(UTC+02:00)

Cosmos 1459 Rocket - Pass Details

Date: 13 July 2020
Orbit: 938 x 999 km, 83.0° (Epoch: 05 August)

Event Time Altitude Azimuth Distance (km) Brightness Sun altitude
Exits shadow 02:29:31 22° 196° (SSW) 1,928 4.9 -15.3°
Maximum altitude 02:33:36 77° 280° (W) 981 4.0 -15.0°
Drops below altitude 10° 02:39:47 10° 7° (N) 2,707 7.5 -14.6°
Sets 02:42:20 0° 9° (N) 3,667 8.5 -14.4°
